DateTimeUTC,F1_A11,F1_S11,BsB_S11,BsG_S11,BsR_S11,BbsB_S11,BbsG_S11,BbsR_S11,BaB_A11,BaG_A11,BaR_A11,Tu_S11,T_S11,Uu_S11,U_S11,P_S11,T1_A11
2021-08-23T23:00:00Z,00000200,20000000,,,,,,,-000.55,-000.42,-000.28,18.6,25.6,06.0,03.9,0678.5,31.0
2021-08-23T23:01:00Z,00000200,20000000,,,,,,,0000.04,-000.04,-000.20,18.6,25.6,06.0,03.9,0678.5,31.0
2021-08-23T23:02:00Z,00000200,20000000,,,,,,,0000.05,-000.10,0000.06,18.6,25.6,05.9,03.8,0678.5,31.0
2021-08-23T23:03:00Z,00000200,60000000,,,,,,,0000.31,-000.17,-000.06,18.6,25.6,05.7,03.7,0678.5,31.0
2021-08-23T23:04:00Z,00000200,40000000,0000.72,0000.55,0000.19,0000.10,-000.27,-000.23,-000.46,-000.00,-000.11,18.7,25.4,05.6,03.7,0679.5,31.0
2021-08-23T23:05:00Z,00000200,00000000,0001.02,0000.59,0000.77,-000.35,0000.21,0000.41,0000.40,0000.28,0000.11,18.8,25.4,05.5,03.7,0679.6,31.0
2021-08-23T23:06:00Z,00000200,00000000,0000.96,0000.39,0000.68,-000.19,0000.08,0000.17,0000.12,0000.17,-000.12,18.8,25.4,05.4,03.6,0679.6,31.0
2021-08-23T23:07:00Z,00000200,00000000,0000.70,0000.54,0000.44,0000.07,0000.20,0000.27,-000.25,0000.06,0000.27,18.8,25.4,05.6,03.7,0679.6,31.0
2021-08-23T23:08:00Z,00000200,00000000,0001.71,0000.93,0000.66,-000.07,0000.08,0000.13,0000.40,-000.16,0000.26,18.8,25.4,05.5,03.7,0679.6,31.0
2021-08-23T23:09:00Z,00000200,00000000,0001.07,0001.03,0000.77,-000.31,-000.03,0000.05,0000.17,0000.33,-000.38,18.8,25.3,05.4,03.6,0679.7,31.0
2021-08-23T23:10:00Z,00000200,00000000,0001.00,0000.69,0000.37,-000.39,0000.04,0000.10,-000.01,0000.20,0000.41,18.8,25.3,05.5,03.7,0679.7,31.0
2021-08-23T23:11:00Z,00000200,00000000,0000.89,0000.89,0000.16,-000.27,0000.18,0000.15,-000.03,0000.10,-000.07,18.7,25.3,05.4,03.6,0679.7,31.0
2021-08-23T23:12:00Z,00000200,00000000,0000.32,0000.48,0000.21,-000.03,-000.00,-000.12,0000.42,-000.24,0000.34,18.7,25.3,05.4,03.6,0679.7,31.0
2021-08-23T23:13:00Z,00000200,00000000,0001.48,0000.89,0000.44,-000.54,0000.36,0000.08,-000.43,0000.32,-000.26,18.7,25.3,05.3,03.5,0679.7,31.0
2021-08-23T23:14:00Z,00000200,00000000,0001.73,0000.77,0000.61,-000.56,0000.29,0000.18,0000.78,-000.07,0000.18,18.7,25.3,05.3,03.6,0679.7,31.0
2021-08-23T23:15:00Z,00000200,00000000,0001.35,0000.96,0000.53,-000.13,-000.06,-000.16,-000.27,0000.12,0000.17,18.7,25.3,05.3,03.5,0679.8,31.0
2021-08-23T23:16:00Z,00000200,00000000,0001.93,0001.05,0000.39,0000.31,-000.02,0000.07,0000.25,-000.08,0000.49,18.7,25.3,05.2,03.5,0679.8,31.0
2021-08-23T23:17:00Z,00000200,00000000,0000.76,0001.07,0000.38,-000.04,0000.21,0000.13,0000.05,0000.29,-000.12,18.7,25.3,05.2,03.5,0679.8,31.0
2021-08-23T23:18:00Z,00000200,00000000,0000.76,0000.94,0000.70,-000.15,0000.28,0000.10,0000.32,0000.21,0000.00,18.7,25.3,05.0,03.4,0679.7,31.0
2021-08-23T23:19:00Z,00000200,00000000,0001.28,0000.89,0000.44,-000.51,-000.26,0000.16,-000.17,0000.33,0000.05,18.7,25.3,05.0,03.4,0679.8,31.0
2021-08-23T23:20:00Z,00000200,00000000,0001.26,0001.29,0000.46,-000.17,-000.17,0000.17,0000.36,-000.19,0000.30,18.7,25.3,05.0,03.4,0679.8,31.0
2021-08-23T23:21:00Z,00000200,00000000,0000.91,0000.99,0000.61,-000.48,0000.17,-000.08,-000.32,-000.05,-000.46,18.7,25.3,04.9,03.3,0679.8,31.0
2021-08-23T23:22:00Z,00000200,00000000,0000.80,0000.49,0000.28,-000.20,-000.16,0000.12,-000.02,0000.05,0000.09,18.7,25.3,04.9,03.3,0679.7,31.0
2021-08-23T23:23:00Z,00000200,00000000,0000.65,0000.50,0000.04,0000.05,0000.07,-000.13,0000.31,0000.06,0000.16,18.7,25.3,04.8,03.2,0679.8,31.0
2021-08-23T23:24:00Z,00000200,00000000,0000.08,0000.58,0000.39,-000.14,0000.04,-000.28,-000.15,0000.07,-000.20,18.7,25.3,04.8,03.2,0679.8,31.0
2021-08-23T23:25:00Z,00000200,00000000,0000.03,0000.68,0000.39,-000.47,-000.01,0000.18,-000.01,-000.26,0000.49,18.7,25.3,04.7,03.2,0679.8,31.0
2021-08-23T23:26:00Z,00000200,00000000,0000.06,0000.07,0000.10,-000.27,-000.01,-000.19,-000.43,-000.21,-000.63,18.7,25.2,04.7,03.2,0679.8,31.0
2021-08-23T23:27:00Z,00000200,00000000,-000.13,0000.55,-000.10,-000.12,0000.07,-000.04,0000.21,0000.25,0000.11,18.7,25.2,04.7,03.1,0679.8,31.0
2021-08-23T23:28:00Z,00000200,00000000,0000.28,0000.42,0000.45,-000.56,0000.28,-000.12,0000.06,-000.04,-000.07,18.7,25.2,04.6,03.1,0679.8,31.0
2021-08-23T23:29:00Z,00000200,00000000,0000.22,0000.18,0000.28,-000.48,0000.21,0000.02,-000.14,-000.12,-000.30,18.7,25.2,04.7,03.1,0679.8,31.0
2021-08-23T23:30:00Z,00000200,00000000,-000.13,0000.75,0000.47,-000.41,-000.08,0000.31,0000.03,-000.07,0000.17,18.7,25.2,04.5,03.0,0679.8,31.0
2021-08-23T23:31:00Z,00000200,00000000,0001.05,0000.85,0000.38,0000.33,-000.09,-000.08,-000.18,-000.02,0000.17,18.7,25.2,04.5,03.0,0679.8,31.0
2021-08-23T23:32:00Z,00000200,00000000,-000.31,0000.35,0000.21,-000.12,0000.07,0000.09,0000.41,0000.04,0000.11,18.7,25.2,04.4,03.0,0679.8,31.0
2021-08-23T23:33:00Z,00000200,00000000,0000.02,0000.53,0000.32,-000.57,0000.30,-000.29,-000.22,0000.14,-000.22,18.8,25.2,04.2,02.9,0679.8,31.0
2021-08-23T23:34:00Z,00000200,00000000,0000.66,0000.53,0000.54,-000.27,0000.02,-000.06,0000.02,0000.03,-000.15,18.9,25.3,04.2,02.9,0679.8,31.0
2021-08-23T23:35:00Z,00000200,00000000,0000.31,0000.13,-000.01,-000.69,-000.41,0000.02,-000.03,0000.02,0000.47,18.9,25.3,04.1,02.8,0679.8,31.0
2021-08-23T23:36:00Z,00000200,00000000,0000.62,0000.46,0000.22,0000.00,-000.07,-000.10,0000.03,-000.25,-000.38,18.9,25.3,04.1,02.8,0679.8,31.0
2021-08-23T23:37:00Z,00000200,00000000,0000.41,0000.24,-000.22,0000.28,0000.30,-000.05,-000.01,-000.47,-000.16,18.9,25.4,03.9,02.7,0679.8,31.0
2021-08-23T23:38:00Z,00000200,00000000,0000.25,0000.28,0000.51,-000.03,-000.09,-000.13,-000.23,0000.26,0000.10,18.9,25.3,04.0,02.7,0679.8,31.0
2021-08-23T23:39:00Z,00000200,00000000,-000.27,0000.17,0000.12,-000.00,-000.11,-000.00,-000.02,-000.09,-000.25,18.9,25.3,03.9,02.6,0679.8,31.0
2021-08-23T23:40:00Z,00000200,00000000,0000.48,0000.43,0000.18,-000.29,-000.02,0000.06,-000.20,-000.14,-000.28,18.9,25.3,03.9,02.6,0679.8,31.0
2021-08-23T23:41:00Z,00000200,00000000,0000.19,0000.32,0000.24,-000.70,0000.11,0000.06,-000.47,-000.06,0000.09,18.8,25.3,03.8,02.6,0679.9,31.0
2021-08-23T23:42:00Z,00000200,00000000,0000.56,0000.43,0000.11,-000.93,0000.25,0000.15,0000.08,-000.19,-000.14,18.9,25.3,03.6,02.4,0679.9,31.0
2021-08-23T23:43:00Z,00000200,00000000,0000.25,0000.04,0000.39,0000.02,-000.08,0000.08,0000.09,0000.21,0000.32,18.8,25.3,03.6,02.4,0679.9,31.0
2021-08-23T23:44:00Z,00000200,00000000,0000.18,0000.25,0000.01,-000.05,-000.21,-000.10,0000.08,-000.00,-000.33,18.8,25.3,03.7,02.5,0679.9,31.0
2021-08-23T23:45:00Z,00000200,00000000,0000.57,0000.18,-000.02,-000.28,0000.06,-000.05,-000.33,-000.60,-000.13,18.8,25.3,03.6,02.4,0679.9,31.0
2021-08-23T23:46:00Z,00000200,00000000,0000.82,0000.30,0000.29,-000.69,-000.02,0000.02,0000.03,0000.19,0000.05,18.8,25.3,03.5,02.4,0679.9,31.0
2021-08-23T23:47:00Z,00000200,00000000,0000.49,0000.42,0000.21,0000.35,0000.08,-000.05,-000.08,-000.09,0000.08,18.8,25.3,03.5,02.4,0679.9,31.0
2021-08-23T23:48:00Z,00000200,00000000,0000.07,0000.38,0000.01,-000.86,0000.09,-000.23,-000.32,-000.28,-000.37,18.7,25.3,03.4,02.3,0679.9,31.0
2021-08-23T23:49:00Z,00000200,00000000,0000.50,-000.02,-000.06,-000.43,-000.02,-000.33,-000.18,0000.05,-000.17,18.7,25.3,03.4,02.3,0679.9,31.0
2021-08-23T23:50:00Z,00000200,00000000,-000.35,0000.62,0000.04,-000.52,0000.27,-000.05,0000.11,0000.02,0000.21,18.7,25.3,03.4,02.2,0679.9,31.0
2021-08-23T23:51:00Z,00000200,00000000,-000.43,0000.07,0000.17,0000.18,0000.03,-000.09,0000.01,-000.56,0000.20,18.7,25.3,03.3,02.2,0679.9,31.0
2021-08-23T23:52:00Z,00000200,00000000,0000.81,0000.63,0000.38,-000.39,-000.09,0000.10,0000.09,0000.16,-000.48,18.7,25.3,03.2,02.2,0679.9,31.0
2021-08-23T23:53:00Z,00000200,00000000,0000.40,0000.41,0000.20,-000.33,0000.11,0000.31,-000.66,-000.12,-000.11,18.7,25.2,03.2,02.1,0680.0,31.0
2021-08-23T23:54:00Z,00000200,00000000,0000.07,0000.32,0000.06,-000.20,0000.02,0000.13,0000.13,-000.08,-000.10,18.7,25.2,03.1,02.1,0680.0,31.0
2021-08-23T23:55:00Z,00000200,00000000,-000.50,0000.38,0000.46,0000.06,0000.31,-000.00,-000.78,-000.57,-000.28,18.7,25.2,03.0,02.0,0680.0,31.0
2021-08-23T23:56:00Z,00000200,00000000,0000.22,0000.60,0000.11,0000.08,-000.24,-000.13,-000.10,-000.33,-000.34,18.6,25.2,03.0,02.0,0680.0,31.0
2021-08-23T23:57:00Z,00000200,40000000,,,,,,,0001.59,0001.71,0001.40,18.7,25.3,02.5,01.7,0680.0,31.0
2021-08-23T23:58:00Z,00000200,60000000,,,,,,,-000.23,-000.37,-000.13,18.4,25.4,03.3,02.2,0679.0,31.0
2021-08-23T23:59:00Z,00000200,20000000,,,,,,,-000.15,-000.36,-000.11,18.3,25.5,03.4,02.2,0679.0,31.0
